When you browse on this site, cookies collect data to enhance your experience and personalize the content and advertising you see.
Visit our Privacy Policy to learn more. By continuing to use the site, you agree to this use of cookies and data.
  • In Schweiz
  • Länderverzeichnis
  • Für 7 Tage
  • Wassertemperatur
  • Satellitenkarten
  • Wetterkarte
  • Widgets
  • user-avatar
    Anmelden

    Stündliche Wetter Valencia

    Heute, 24 Juli, Mittwoch

    Zeit Temperatur Niederschläge Wind Luftdruck Luftfeuchtigkeit
    00:00 +23°C° 0 mm 1 m/S 718 mmHg 97%
    01:00 +21°C° 0 mm 0 m/S 718 mmHg 97%
    02:00 +21°C° 0 mm 0 m/S 718 mmHg 96%
    03:00 +21°C° 0 mm 0 m/S 718 mmHg 96%
    04:00 +21°C° 0 mm 0 m/S 718 mmHg 96%
    05:00 +21°C° 0 mm 0 m/S 718 mmHg 94%
    06:00 +22°C° 0 mm 0 m/S 719 mmHg 92%
    07:00 +23°C° 0 mm 0 m/S 719 mmHg 91%
    08:00 +24°C° 0.2 mm 0 m/S 719 mmHg 85%
    09:00 +28°C° 0.2 mm 1 m/S 720 mmHg 78%
    10:00 +29°C° 0.2 mm 1 m/S 720 mmHg 72%
    11:00 +30°C° 0.5 mm 1 m/S 719 mmHg 71%
    12:00 +30°C° 0.5 mm 1 m/S 719 mmHg 70%
    13:00 +30°C° 0.5 mm 1 m/S 718 mmHg 69%
    14:00 +29°C° 0.8 mm 1 m/S 718 mmHg 74%
    15:00 +29°C° 0.8 mm 1 m/S 717 mmHg 80%
    16:00 +28°C° 0.8 mm 1 m/S 717 mmHg 85%
    17:00 +26°C° 0.2 mm 1 m/S 717 mmHg 88%
    18:00 +25°C° 0.2 mm 1 m/S 717 mmHg 92%
    19:00 +24°C° 0.2 mm 1 m/S 717 mmHg 95%
    20:00 +24°C° 0 mm 1 m/S 718 mmHg 95%
    21:00 +24°C° 0 mm 1 m/S 718 mmHg 96%
    22:00 +23°C° 0 mm 1 m/S 719 mmHg 96%
    23:00 +23°C° 0 mm 1 m/S 718 mmHg 96%

    Morgen, 25 Juli, Donnerstag

    Zeit Temperatur Niederschläge Wind Luftdruck Luftfeuchtigkeit
    00:00 +23°C° 0 mm 1 m/S 718 mmHg 96%
    01:00 +21°C° 0 mm 0 m/S 717 mmHg 96%
    02:00 +21°C° 0 mm 0 m/S 717 mmHg 96%
    03:00 +20°C° 0 mm 0 m/S 717 mmHg 96%
    04:00 +20°C° 0 mm 0 m/S 717 mmHg 95%
    05:00 +21°C° 0 mm 0 m/S 717 mmHg 94%
    06:00 +22°C° 0 mm 0 m/S 718 mmHg 93%
    07:00 +22°C° 0 mm 0 m/S 718 mmHg 91%
    08:00 +26°C° 0 mm 1 m/S 719 mmHg 82%
    09:00 +28°C° 0 mm 1 m/S 719 mmHg 73%
    10:00 +30°C° 0 mm 1 m/S 719 mmHg 64%
    11:00 +30°C° 0.2 mm 1 m/S 719 mmHg 64%
    12:00 +30°C° 0.2 mm 1 m/S 718 mmHg 65%
    13:00 +30°C° 0.2 mm 2 m/S 718 mmHg 66%
    14:00 +29°C° 0.2 mm 1 m/S 717 mmHg 68%
    15:00 +29°C° 0.2 mm 1 m/S 717 mmHg 71%
    16:00 +29°C° 0.2 mm 1 m/S 716 mmHg 73%
    17:00 +27°C° 0 mm 1 m/S 717 mmHg 80%
    18:00 +25°C° 0 mm 1 m/S 717 mmHg 88%
    19:00 +24°C° 0 mm 1 m/S 717 mmHg 95%
    20:00 +23°C° 0 mm 1 m/S 718 mmHg 95%
    21:00 +23°C° 0 mm 1 m/S 718 mmHg 95%
    22:00 +21°C° 0 mm 0 m/S 719 mmHg 95%
    23:00 +21°C° 0 mm 0 m/S 718 mmHg 94%

    übermorgen, 26 Juli, Freitag

    Zeit Temperatur Niederschläge Wind Luftdruck Luftfeuchtigkeit
    00:00 +21°C° 0 mm 0 m/S 718 mmHg 94%
    01:00 +21°C° 0 mm 0 m/S 717 mmHg 94%
    02:00 +20°C° 0 mm 0 m/S 717 mmHg 94%
    03:00 +20°C° 0 mm 0 m/S 717 mmHg 94%
    04:00 +20°C° 0 mm 0 m/S 718 mmHg 94%
    05:00 +21°C° 0 mm 0 m/S 718 mmHg 92%
    06:00 +24°C° 0 mm 1 m/S 719 mmHg 90%
    07:00 +25°C° 0 mm 1 m/S 719 mmHg 87%
    08:00 +26°C° 0.1 mm 1 m/S 719 mmHg 80%
    09:00 +28°C° 0.1 mm 2 m/S 720 mmHg 74%
    10:00 +29°C° 0.1 mm 2 m/S 720 mmHg 67%
    11:00 +30°C° 0 mm 2 m/S 719 mmHg 63%
    12:00 +31°C° 0 mm 2 m/S 719 mmHg 59%
    13:00 +32°C° 0 mm 2 m/S 718 mmHg 55%
    14:00 +31°C° 0.7 mm 2 m/S 718 mmHg 64%
    15:00 +30°C° 0.7 mm 1 m/S 718 mmHg 72%
    16:00 +28°C° 0.7 mm 1 m/S 717 mmHg 81%
    17:00 +27°C° 0.4 mm 1 m/S 718 mmHg 85%
    18:00 +26°C° 0.4 mm 1 m/S 718 mmHg 90%
    19:00 +24°C° 0.4 mm 1 m/S 718 mmHg 94%
    20:00 +24°C° 0 mm 1 m/S 719 mmHg 94%
    21:00 +23°C° 0 mm 1 m/S 719 mmHg 95%
    22:00 +21°C° 0 mm 0 m/S 719 mmHg 95%
    23:00 +21°C° 0 mm 0 m/S 719 mmHg 95%

    27 Juli, Samstag

    Zeit Temperatur Niederschläge Wind Luftdruck Luftfeuchtigkeit
    00:00 +21°C° 0 mm 0 m/S 719 mmHg 95%
    01:00 +21°C° 0 mm 0 m/S 718 mmHg 95%
    02:00 +21°C° 0 mm 0 m/S 718 mmHg 95%
    03:00 +20°C° 0 mm 0 m/S 718 mmHg 95%
    04:00 +20°C° 0 mm 0 m/S 718 mmHg 95%
    05:00 +21°C° 0 mm 0 m/S 719 mmHg 94%
    06:00 +22°C° 0 mm 0 m/S 719 mmHg 93%
    07:00 +23°C° 0 mm 0 m/S 720 mmHg 91%
    08:00 +25°C° 0.1 mm 0 m/S 720 mmHg 82%
    09:00 +29°C° 0.1 mm 1 m/S 720 mmHg 72%
    10:00 +30°C° 0.1 mm 1 m/S 721 mmHg 63%
    11:00 +30°C° 0.4 mm 1 m/S 720 mmHg 65%
    12:00 +30°C° 0.4 mm 2 m/S 719 mmHg 68%
    13:00 +30°C° 0.4 mm 2 m/S 719 mmHg 70%
    14:00 +29°C° 0.8 mm 2 m/S 718 mmHg 76%
    15:00 +28°C° 0.8 mm 1 m/S 718 mmHg 82%
    16:00 +27°C° 0.8 mm 1 m/S 717 mmHg 88%
    17:00 +26°C° 0.4 mm 1 m/S 718 mmHg 91%
    18:00 +25°C° 0.4 mm 1 m/S 718 mmHg 93%
    19:00 +24°C° 0.4 mm 1 m/S 719 mmHg 95%
    20:00 +24°C° 0.2 mm 1 m/S 719 mmHg 95%
    21:00 +22°C° 0.2 mm 0 m/S 719 mmHg 95%
    22:00 +22°C° 0.2 mm 0 m/S 720 mmHg 94%
    23:00 +21°C° 0.3 mm 0 m/S 719 mmHg 95%

    28 Juli, Sonntag

    Zeit Temperatur Niederschläge Wind Luftdruck Luftfeuchtigkeit
    00:00 +21°C° 0.3 mm 0 m/S 719 mmHg 95%
    01:00 +21°C° 0.3 mm 0 m/S 719 mmHg 96%
    02:00 +21°C° 0.2 mm 0 m/S 718 mmHg 96%
    03:00 +21°C° 0.2 mm 0 m/S 718 mmHg 96%
    04:00 +21°C° 0.2 mm 0 m/S 718 mmHg 96%
    05:00 +21°C° 0.1 mm 0 m/S 718 mmHg 96%
    06:00 +21°C° 0.1 mm 0 m/S 719 mmHg 95%
    07:00 +21°C° 0.1 mm 0 m/S 719 mmHg 95%
    08:00 +24°C° 0.1 mm 1 m/S 720 mmHg 89%
    09:00 +26°C° 0.1 mm 1 m/S 720 mmHg 84%
    10:00 +27°C° 0.1 mm 2 m/S 720 mmHg 79%
    11:00 +26°C° 0.8 mm 2 m/S 719 mmHg 82%
    12:00 +26°C° 0.8 mm 2 m/S 719 mmHg 85%
    13:00 +26°C° 0.8 mm 2 m/S 719 mmHg 87%
    14:00 +25°C° 0.3 mm 2 m/S 718 mmHg 88%
    15:00 +25°C° 0.3 mm 2 m/S 718 mmHg 90%
    16:00 +25°C° 0.3 mm 1 m/S 717 mmHg 91%
    17:00 +24°C° 0 mm 1 m/S 717 mmHg 92%
    18:00 +24°C° 0 mm 1 m/S 717 mmHg 93%
    19:00 +23°C° 0 mm 1 m/S 717 mmHg 94%
    20:00 +23°C° 0 mm 1 m/S 718 mmHg 93%
    21:00 +21°C° 0 mm 0 m/S 718 mmHg 92%
    22:00 +21°C° 0 mm 0 m/S 718 mmHg 91%
    23:00 +23°C° 0 mm 1 m/S 718 mmHg 90%

    29 Juli, Montag

    Zeit Temperatur Niederschläge Wind Luftdruck Luftfeuchtigkeit
    00:00 +23°C° 0 mm 1 m/S 718 mmHg 90%
    01:00 +23°C° 0 mm 1 m/S 717 mmHg 89%
    02:00 +23°C° 0 mm 1 m/S 717 mmHg 91%
    03:00 +22°C° 0 mm 1 m/S 717 mmHg 92%
    04:00 +22°C° 0 mm 1 m/S 717 mmHg 94%
    05:00 +22°C° 0 mm 1 m/S 718 mmHg 93%
    06:00 +23°C° 0 mm 2 m/S 718 mmHg 92%
    07:00 +23°C° 0 mm 2 m/S 719 mmHg 91%
    08:00 +25°C° 0 mm 2 m/S 719 mmHg 84%
    09:00 +26°C° 0 mm 2 m/S 719 mmHg 77%
    10:00 +27°C° 0 mm 3 m/S 719 mmHg 70%
    11:00 +28°C° 0 mm 3 m/S 719 mmHg 68%
    12:00 +29°C° 0 mm 3 m/S 718 mmHg 65%
    13:00 +30°C° 0 mm 4 m/S 718 mmHg 63%
    14:00 +29°C° 0 mm 3 m/S 717 mmHg 66%
    15:00 +29°C° 0 mm 3 m/S 717 mmHg 69%
    16:00 +28°C° 0 mm 3 m/S 716 mmHg 72%
    17:00 +27°C° 0 mm 2 m/S 716 mmHg 79%
    18:00 +25°C° 0 mm 2 m/S 716 mmHg 86%
    19:00 +24°C° 0 mm 1 m/S 717 mmHg 92%
    20:00 +24°C° 0 mm 1 m/S 717 mmHg 94%
    21:00 +24°C° 0 mm 1 m/S 718 mmHg 95%
    22:00 +23°C° 0 mm 1 m/S 718 mmHg 96%
    23:00 +23°C° 0 mm 1 m/S 718 mmHg 96%
    Mehr zeigen